Location: LDNL
(36.4545°S, 141.6685°E)
Time: 09:55:33
(UTC+11:00)

Courier 1B - Pass Details

Date: 09 February 2023
Orbit: 962 x 1209 km, 28.3° (Epoch: 21 March)

Event Time Altitude Azimuth Distance (km) Brightness Sun altitude
Exits shadow 04:29:41 23° 17° (NNE) 2,302 9.2 -26.0°
Drops below altitude 10° 04:33:11 10° 39° (NE) 3,144 10.1 -25.5°
Sets 04:36:26 0° 49° (NE) 4,106 10.8 -25.0°
